Rogue Valley International Medford Airport Medford US
ICAO: KMFR
IATA: MFR
Category: Medium
Scheduled Services: Yes

Elevation: 1335 ft
TransAlt. 18000 ft.

Airport Communications:
CASCADE APP/DEP:124.3
ATIS:127.25
CTAF:119.4
GND:121.8
MC MINNVILLE RDO:122.65
MEDFORD TWR:119.4
UNICOM:122.95

KMFR Zoom In..

If you have problems with the map follow the link
https://www.worldairports.se/pages/airport.php?
ICAO=KMFR

Runways:

(A) RW 14 length 8800 ft width 150 ft
ILS 110.30 / hdg 142

(B) RW 32 length 8800 ft width 150 ft
---- / hdg 322

Location; KMFR
Day. 16 / Time. 02.53 Zulu
* Altimeter: 30.16
* Temperature: 07° c. 44.6°f.
* Wind from: 000° Speed 00 kn.
Dewpoint: -03° c.
Visibility: 10 Statute Miles.
Clouds: Clear (automated report).

KMFR 160253Z 00000KT 10SM CLR 07/M03 A3016 RMK AO2 SLP221 T00671028 51004


Wind - Calm.

 
 
jpsmedia.com for Web Design worldairports.se 2018   terms of use